Change the Weather History Date:

Sunday, August 5, 2012

  Actual Average Record
Temperature  
Mean Temperature 68 °F 71 °F  
Max Temperature 92 °F 90 °F 103 °F (1961)
Min Temperature 44 °F 51 °F 37 °F (1980)
Degree Days  
Heating Degree Days 0    
Month to date heating degree days 8  
Since 1 June heating degree days 197  
Since 1 July heating degree days 18  
Cooling Degree Days 3    
Month to date cooling degree days 11  
Year to date cooling degree days 214  
Since 1 June cooling degree days 214  
Growing Degree Days 18 (Base 50)    
Moisture  
Dew Point 37 °F    
Average Humidity 41    
Maximum Humidity 65    
Minimum Humidity 16    
Precipitation  
Precipitation 0.00 in 0.03 in 0.73 in (2007)
Month to date precipitation 0.00 0.16  
Year to date precipitation 6.60 9.58  
Snow  
Snow 0.00 in 0.00 in T in (1950)
Month to date snowfall 0.0 0.0  
Since 1 June snowfall 0.0 0.0  
Since 1 July snowfall 0.0 0.0  
Snow Depth 0.00 in    
Sea Level Pressure  
Sea Level Pressure 30.04 in    
Wind  
Wind Speed 4 mph (East)    
Max Wind Speed 10 mph    
Max Gust Speed 15 mph    
Visibility 10 miles    
Events      
T = Trace of Precipitation, MM = Missing Value Source: NWS Daily Summary

Daily Weather History Graph

Daily Weather History Graph

Search for Another Location

Airport or City:

Trip Planner

Search our weather history database for the weather conditions in past years. The results will help you decide how hot, cold, wet, or windy it might be!

Date:

Astronomy

Aug. 05, 2012 Rise Set
Actual Time 6:13 AM MDT 8:47 PM MDT
Civil Twilight 5:39 AM MDT 9:20 PM MDT
Nautical Twilight 4:56 AM MDT 10:03 PM MDT
Astronomical Twilight 4:08 AM MDT 10:51 PM MDT
Moon 10:09 PM MDT (8/5) 10:22 AM MDT (8/5)
Length of Visible Light 15h 41m
Length of Day
14h 34m
Waning Gibbous, 86% of the Moon is Illuminated
Aug 5
Waning Gibbous
Aug 9
Last Quarter
Aug 17
New
Aug 24
First Quarter
Aug 31
Full

Hourly Weather History & Observations

Time (MDT) Temp. Dew Point Humidity Pressure Visibility Wind Dir Wind Speed Gust Speed Precip Events Conditions
12:56 AM 50.0 °F 30.9 °F 48% 30.10 in 10.0 mi SE 4.6 mph - N/A   Clear
1:56 AM 50.0 °F 35.1 °F 57% 30.09 in 10.0 mi SSE 5.8 mph - N/A   Clear
2:56 AM 54.0 °F 34.0 °F 47% 30.08 in 10.0 mi South 4.6 mph - N/A   Clear
3:56 AM 48.0 °F 34.0 °F 58% 30.09 in 10.0 mi ESE 5.8 mph - N/A   Clear
4:56 AM 48.9 °F 34.0 °F 56% 30.08 in 10.0 mi South 3.5 mph - N/A   Clear
5:56 AM 45.0 °F 34.0 °F 65% 30.09 in 10.0 mi Calm Calm - N/A   Clear
6:56 AM 48.9 °F 35.1 °F 59% 30.09 in 10.0 mi Calm Calm - N/A   Clear
7:56 AM 55.0 °F 36.0 °F 49% 30.09 in 10.0 mi SSE 3.5 mph - N/A   Clear
8:56 AM 61.0 °F 32.0 °F 34% 30.10 in 10.0 mi ENE 3.5 mph - N/A   Clear
9:56 AM 69.1 °F 34.0 °F 27% 30.10 in 10.0 mi Calm Calm - N/A   Clear
10:56 AM 73.9 °F 37.9 °F 27% 30.09 in 10.0 mi Calm Calm - N/A   Clear
11:56 AM 79.0 °F 28.9 °F 16% 30.07 in 10.0 mi Calm Calm - N/A   Clear
12:56 PM 82.0 °F 39.0 °F 22% 30.05 in 10.0 mi North 4.6 mph - N/A   Clear
1:56 PM 84.0 °F 42.1 °F 23% 30.03 in 10.0 mi North 3.5 mph - N/A   Clear
2:56 PM 89.1 °F 43.0 °F 20% 29.99 in 10.0 mi NNE 8.1 mph - N/A   Clear
3:56 PM 90.0 °F 44.1 °F 20% 29.98 in 10.0 mi NNW 8.1 mph - N/A   Clear
4:56 PM 90.0 °F 37.0 °F 15% 29.96 in 10.0 mi NNW 5.8 mph - N/A   Clear
5:56 PM 89.1 °F 37.9 °F 16% 29.96 in 10.0 mi North 9.2 mph - N/A   Clear
6:56 PM 89.1 °F 39.0 °F 17% 29.94 in 10.0 mi NNW 4.6 mph - N/A   Clear
7:56 PM 86.0 °F 37.0 °F 18% 29.94 in 10.0 mi East 3.5 mph - N/A   Clear
8:56 PM 79.0 °F 39.9 °F 25% 29.95 in 10.0 mi South 6.9 mph - N/A   Clear
9:56 PM 66.2 °F 42.8 °F 43% 30.09 in 10.0 mi NE 3.5 mph - N/A   Clear
10:56 PM 68.0 °F 41.0 °F 37% 29.99 in 10.0 mi SSW 8.1 mph - N/A   Clear
11:56 PM 59.0 °F 41.0 °F 51% 30.00 in 10.0 mi SE 5.8 mph - N/A   Clear